Location: Blangy-Tronville
(49.8790°N, 2.4226°E)
Time: 05:13:41
(UTC+00:00)

USA 281 - Pass Details

Date: 18 November 2025
Orbit: 1079 x 1080 km, 106.0° (Epoch: 08 December)

Event Time Altitude Azimuth Distance (km) Brightness Sun altitude
Exits shadow 18:11:31 35° 82° (E) 1,688 3.7 -20.4°
Maximum altitude 18:13:10 40° 49° (NE) 1,543 3.6 -20.7°
Drops below altitude 10° 18:19:12 10° 343° (NNW) 2,931 5.6 -21.7°
Sets 18:21:52 0° 337° (NNW) 3,890 6.4 -22.1°
